[[{"header":{"parameterUnit":"m.s-1","parameterCategory":2,"la1":30.2991,"la2":30.254,"lo1":-89.0895,"lo2":-89.0444,"dy":0.0017,"dx":0.0017,"nx":28,"ny":28,"refTime":"2023-07-24T21:00:00:Z","depth":"0","parameterNumber":2,"parameterNumberName":"U-component_of_CURRENTS"},"data":[0,0,0,0,0,0,0,0,0,0,0,0,0,0,0,0,0,0,0,0,0,0,0,0,0,0,0,0,0,0,0,0,0,0,0,0,0,0,0,0,0,0,0,0,0,0,0,0,0,0,0,0,0,0,0,0,0,0,0.212,0.212,0,0.2168,0.2168,0.2168,0.2179,0.2179,0.2178,0.2178,0.228,0.2283,0.2286,0,0,0,0,0,0,0,0,0,0,0,0,0,0.1954,0.1957,0.212,0.212,0.2121,0.2167,0.2168,0.2168,0.2179,0.2179,0.2178,0.2178,0.2279,0.2283,0.2286,0,0,0,0,0,0,0,0,0,0,0,0,0,0.2014,0.1958,0.2119,0.2134,0.2136,0.2167,0.2168,0.2168,0.2179,0.2179,0.2178,0.2178,0.2278,0.2282,0.2287,0.2315,0,0,0.2299,0.2301,0,0,0,0,0,0,0,0,0.201,0.202,0.2131,0.2133,0.2136,0.217,0.2147,0.2221,0.2179,0.2159,0.2178,0.2178,0.225,0.2257,0.2261,0.2319,0.2324,0.23,0.2302,0.2304,0.2305,0,0,0,0,0,0,0,0.2006,0.2017,0.2136,0.2132,0.2135,0.211,0.2119,0.216,0.2204,0.2161,0.2163,0.2173,0.2252,0.2257,0.2264,0.2325,0.23,0.2303,0.2306,0.2308,0.2471,0.2473,0,0,0,0,0,0,0.2012,0.2014,0.2134,0.2137,0.2075,0.2114,0.2123,0.2156,0.2202,0.2209,0.2173,0.2173,0.225,0.2259,0.2268,0.2301,0.2304,0.2308,0.231,0.2469,0.2472,0.2474,0,0,0,0,0,0,0.2008,0.2023,0.2132,0.2077,0.209,0.2118,0.2154,0.2157,0.2159,0.2211,0.2219,0.217,0.225,0.2262,0.2305,0.2306,0.231,0.2314,0.2467,0.247,0.2473,0.2371,0,0,0,0,0,0,0.2004,0.2022,0.2029,0.2079,0.2093,0.2139,0.2154,0.2159,0.2167,0.2167,0.2212,0.2221,0.2251,0.2299,0.2309,0.2311,0.2317,0.2465,0.2468,0.2472,0.2372,0.237,0.2368,0,0,0,0,0,0.1998,0.1999,0.203,0.2044,0.211,0.2139,0.2143,0.2159,0.2167,0.216,0.2201,0.2219,0.2329,0.2303,0.2315,0.2318,0.2463,0.2467,0.2471,0.2373,0.237,0.2368,0,0,0,0,0,0,0.1926,0.2003,0.2037,0.2063,0.2099,0.2141,0.2124,0.2155,0.218,0.2182,0.2229,0.2242,0.2282,0.2328,0.2298,0.2385,0.2405,0.2412,0.2326,0.2325,0.2323,0.2289,0.232,0,0,0,0,0,0.1921,0.1949,0.2015,0.2037,0.2043,0.2088,0.2096,0.2125,0.2162,0.217,0.2204,0.2259,0.2311,0.2336,0.2385,0.2424,0.2448,0.2445,0.2443,0.244,0.2428,0.247,0.2468,0.2487,0.2487,0.2487,0,0,0.1907,0.1946,0.1967,0.2023,0.2042,0.2061,0.209,0.2106,0.2123,0.2181,0.2193,0.2245,0.2322,0.2362,0.2387,0.2396,0.2449,0.2446,0.2442,0.2431,0.2474,0.2471,0.2469,0.249,0.2489,0.2489,0,0,0.1865,0.1917,0.1912,0.1944,0.1984,0.2025,0.2031,0.2077,0.2086,0.2127,0.2175,0.2219,0.2297,0.2339,0.2378,0.2401,0.2434,0.2438,0.2396,0.2436,0.2433,0.2431,0.2442,0.2441,0.2439,0.2439,0.2439,0,0.1847,0.1865,0.1911,0.191,0.1937,0.2008,0.2015,0.2039,0.2099,0.2101,0.2121,0.2228,0.2281,0.2335,0.2348,0.2388,0.2415,0.2384,0.2426,0.2425,0.2424,0.2437,0.2437,0.2434,0.2435,0.2435,0.2436,0,0.1806,0.1822,0.1813,0.1859,0.1886,0.1908,0.1966,0.1976,0.2012,0.2048,0.209,0.2164,0.2225,0.2263,0.2311,0.2349,0.2369,0.2408,0.2412,0.2415,0.2429,0.2432,0.2428,0.243,0.2431,0.2432,0,0,0.1791,0.1789,0.1788,0.1789,0.1872,0.1884,0.1907,0.1943,0.1932,0.1999,0.1995,0.2095,0.2131,0.218,0.2249,0.2291,0.2305,0.2346,0.2351,0.232,0.2377,0.2309,0.2305,0.2353,0.2353,0.2353,0.238,0,0.1757,0.171,0.1751,0.1752,0.1742,0.182,0.1821,0.1863,0.1904,0.1911,0.1992,0.2024,0.2104,0.2128,0.2185,0.2285,0.2311,0.2293,0.2412,0.2414,0.2323,0.2306,0.2164,0.2169,0.2382,0.2383,0.2383,0,0.1722,0.1692,0.1637,0.1665,0.1667,0.1687,0.1707,0.1728,0.1767,0.1785,0.1846,0.1916,0.1998,0.2058,0.2202,0.2192,0.2268,0.2338,0.2342,0.2313,0.2351,0.221,0.2166,0.1982,0.2387,0.2387,0.2387,0,0.1649,0.1645,0.1581,0.1593,0.1607,0.1599,0.1642,0.1674,0.1676,0.1712,0.1718,0.1826,0.188,0.2003,0.2156,0.2184,0.2296,0.2354,0.2355,0.2351,0.2268,0.2255,0.2026,0.2423,0.2423,0.2423,0.2423,0,0.1615,0.1593,0.1524,0.1494,0.1447,0.1503,0.1489,0.1513,0.155,0.1557,0.1649,0.1681,0.1874,0.1974,0.2112,0.2226,0.2261,0.2327,0.2349,0.2229,0.2213,0.2085,0.2033,0.2424,0.2424,0.2424,0.2424,0,0.1571,0.1517,0.1442,0.1395,0.1398,0.1358,0.1431,0.1433,0.1444,0.1462,0.1472,0.1581,0.1708,0.1871,0.2061,0.215,0.2173,0.2298,0.2124,0.2125,0.1955,0.1906,0.1779,0.1765,0.2302,0.23,0.2299,0,0.1547,0.147,0.1351,0.1311,0.1301,0.1289,0.131,0.1363,0.1388,0.1413,0.1423,0.1514,0.1598,0.1804,0.197,0.2135,0.2085,0.2074,0.2101,0.1887,0.1853,0.1833,0.1832,0.1954,0.195,0.1947,0.1944,0,0.1502,0.1413,0.1337,0.1237,0.1217,0.1218,0.1266,0.126,0.1315,0.1314,0.134,0.1388,0.1558,0.165,0.1818,0.1932,0.1884,0.2011,0.1841,0.1582,0.1498,0.1513,0.198,0.1915,0.1918,0.192,0.1922,0.1923,0.1467,0.1391,0.1257,0.118,0.1156,0.115,0.1147,0.1206,0.1201,0.1183,0.126,0.1251,0.1309,0.1538,0.1647,0.158,0.172,0.1524,0.1492,0.15,0.1431,0.1807,0.1741,0.1743,0.1744,0.1746,0.1747,0,0.1428,0.1351,0.1262,0.1139,0.1101,0.1107,0.1115,0.1102,0.1089,0.1082,0.1088,0.0987,0.1011,0.1073,0.1055,0.1017,0.1105,0.0962,0.0866,0.0912,0.1259,0.1182,0.0926,0.0926,0.0927,0.0927,0.0927,0.0927,0.14,0.13,0.1234,0.1103,0.1045,0.0987,0.0967,0.0947,0.0919,0.0818,0.0706,0.0689,0.0569,0.0411,0.0323,0.0394,0.0376,0.0355,0.0435,0.058,0.0629,0.0675,0.0584,0.0207,0.0207,0.0062,0.006,0.0058]},{"header":{"parameterUnit":"m.s-1","parameterCategory":2,"la1":30.2991,"la2":30.254,"lo1":-89.0895,"lo2":-89.0444,"dy":0.0017,"dx":0.0017,"nx":28,"ny":28,"refTime":"2023-07-24T21:00:00:Z","depth":"0","parameterNumber":3,"parameterNumberName":"V-component_of_CURRENTS"},"data":[0,0,0,0,0,0,0,0,0,0,0,0,0,0,0,0,0,0,0,0,0,0,0,0,0,0,0,0,0,0,0,0,0,0,0,0,0,0,0,0,0,0,0,0,0,0,0,0,0,0,0,0,0,0,0,0,0,0,-0.0703,-0.0703,0,-0.0669,-0.0669,-0.0669,-0.0674,-0.0674,-0.0675,-0.0675,-0.0686,-0.0686,-0.0686,0,0,0,0,0,0,0,0,0,0,0,0,0,-0.0703,-0.0703,-0.0703,-0.0703,-0.0702,-0.0669,-0.0669,-0.0669,-0.0674,-0.0674,-0.0675,-0.0675,-0.0686,-0.0686,-0.0686,0,0,0,0,0,0,0,0,0,0,0,0,0,-0.0691,-0.0704,-0.0703,-0.07,-0.0699,-0.0669,-0.0669,-0.0669,-0.0674,-0.0674,-0.0675,-0.0676,-0.0686,-0.0686,-0.0686,-0.0671,0,0,-0.0685,-0.0685,0,0,0,0,0,0,0,0,-0.0692,-0.0691,-0.0701,-0.07,-0.0699,-0.0675,-0.0673,-0.0671,-0.0674,-0.0685,-0.0675,-0.0676,-0.0685,-0.0685,-0.0679,-0.0672,-0.0672,-0.0685,-0.0685,-0.0685,-0.0685,0,0,0,0,0,0,0,-0.0693,-0.0692,-0.0691,-0.07,-0.0699,-0.0676,-0.0676,-0.0672,-0.0684,-0.0684,-0.0684,-0.0677,-0.0685,-0.0679,-0.0679,-0.0672,-0.0685,-0.0685,-0.0685,-0.0685,-0.0641,-0.064,0,0,0,0,0,0,-0.0697,-0.0694,-0.0692,-0.069,-0.0695,-0.0675,-0.0675,-0.0683,-0.0683,-0.0682,-0.0677,-0.0678,-0.0679,-0.0679,-0.0679,-0.0654,-0.0685,-0.0685,-0.0685,-0.0642,-0.0641,-0.064,0,0,0,0,0,0,-0.0697,-0.0698,-0.0694,-0.0689,-0.0687,-0.0675,-0.0684,-0.0682,-0.0674,-0.0677,-0.0678,-0.067,-0.0679,-0.068,-0.0666,-0.0655,-0.0685,-0.0685,-0.0644,-0.0642,-0.0641,-0.061,0,0,0,0,0,0,-0.0698,-0.0698,-0.0706,-0.069,-0.0687,-0.0675,-0.0683,-0.0681,-0.0668,-0.0669,-0.0671,-0.0673,-0.068,-0.0666,-0.0666,-0.0656,-0.0684,-0.0645,-0.0643,-0.0641,-0.0612,-0.0607,-0.0603,0,0,0,0,0,-0.0698,-0.0706,-0.0707,-0.0707,-0.0699,-0.0674,-0.067,-0.0665,-0.0667,-0.0661,-0.0656,-0.0673,-0.0654,-0.0665,-0.0665,-0.0654,-0.0646,-0.0644,-0.0641,-0.0614,-0.0608,-0.0603,0,0,0,0,0,0,-0.0709,-0.0706,-0.0708,-0.0715,-0.0695,-0.0675,-0.0667,-0.066,-0.065,-0.0652,-0.0657,-0.0658,-0.064,-0.0648,-0.066,-0.0635,-0.0653,-0.0651,-0.0632,-0.0627,-0.0623,-0.0631,-0.0684,0,0,0,0,0,-0.0715,-0.0725,-0.0706,-0.0712,-0.07,-0.0682,-0.0671,-0.0664,-0.065,-0.0647,-0.0646,-0.0642,-0.0629,-0.063,-0.0621,-0.0609,-0.0607,-0.0602,-0.0598,-0.0594,-0.0599,-0.058,-0.0574,-0.0632,-0.0632,-0.0632,0,0,-0.0724,-0.0721,-0.0728,-0.0715,-0.07,-0.0682,-0.0678,-0.0658,-0.0645,-0.0649,-0.0636,-0.0624,-0.062,-0.0602,-0.0596,-0.061,-0.0572,-0.0591,-0.0588,-0.0596,-0.0577,-0.0571,-0.0566,-0.0631,-0.0631,-0.0631,0,0,-0.0726,-0.0737,-0.0734,-0.0715,-0.0688,-0.068,-0.0672,-0.0646,-0.0638,-0.0615,-0.0612,-0.0591,-0.0582,-0.0572,-0.0567,-0.0533,-0.0544,-0.0532,-0.0524,-0.0504,-0.05,-0.0496,-0.047,-0.0465,-0.0537,-0.0537,-0.0537,0,-0.0743,-0.0728,-0.0726,-0.0704,-0.0691,-0.0679,-0.0659,-0.0646,-0.0621,-0.0605,-0.061,-0.0568,-0.0566,-0.0537,-0.0528,-0.0524,-0.0515,-0.0546,-0.0499,-0.0496,-0.0492,-0.0467,-0.0461,-0.0535,-0.0535,-0.0535,-0.0535,0,-0.0724,-0.0712,-0.0703,-0.0685,-0.0673,-0.0653,-0.0634,-0.0618,-0.0608,-0.0589,-0.0552,-0.0538,-0.0516,-0.0508,-0.0511,-0.0481,-0.0482,-0.0491,-0.0516,-0.0484,-0.046,-0.0454,-0.0532,-0.0533,-0.0533,-0.0534,0,0,-0.0779,-0.0707,-0.0706,-0.0679,-0.0659,-0.0644,-0.0628,-0.0598,-0.0568,-0.0553,-0.0516,-0.0494,-0.0482,-0.0475,-0.0469,-0.0458,-0.0419,-0.0469,-0.0468,-0.0448,-0.037,-0.0318,-0.0307,-0.0422,-0.0422,-0.0421,-0.0358,0,-0.0768,-0.0707,-0.0692,-0.0655,-0.0621,-0.0613,-0.0593,-0.0569,-0.0543,-0.0505,-0.0489,-0.0453,-0.0471,-0.0451,-0.0442,-0.0424,-0.0405,-0.0435,-0.04,-0.0399,-0.0361,-0.0299,-0.02,-0.0131,-0.0352,-0.0351,-0.035,0,-0.0764,-0.0714,-0.0657,-0.0608,-0.0597,-0.0585,-0.0548,-0.0525,-0.0479,-0.0454,-0.0427,-0.0413,-0.0393,-0.0409,-0.0376,-0.0396,-0.0381,-0.0371,-0.0369,-0.0331,-0.0336,-0.02,-0.0112,-0.0053,-0.0342,-0.0342,-0.0343,0,-0.0783,-0.0711,-0.0658,-0.0638,-0.0574,-0.0561,-0.0549,-0.0505,-0.0471,-0.0422,-0.0384,-0.0367,-0.0344,-0.0338,-0.0324,-0.0349,-0.028,-0.031,-0.0246,-0.0242,-0.0156,-0.0146,-0.0012,-0.0276,-0.0276,-0.0276,-0.0276,0,-0.0785,-0.0754,-0.065,-0.0624,-0.0558,-0.0543,-0.0502,-0.0465,-0.0423,-0.037,-0.0358,-0.0308,-0.0326,-0.0292,-0.0297,-0.0241,-0.0256,-0.0227,-0.0216,-0.014,-0.013,-0.0076,-0.0081,-0.0274,-0.0274,-0.0275,-0.0275,0,-0.0811,-0.0749,-0.0667,-0.0579,-0.0558,-0.0507,-0.0478,-0.0451,-0.0399,-0.033,-0.0316,-0.0262,-0.0212,-0.021,-0.0184,-0.0184,-0.008,-0.0127,-0.0033,-0.0012,0.0086,0.0079,0.0233,0.0307,-0.005,-0.0049,-0.0047,0,-0.0804,-0.0756,-0.0629,-0.0579,-0.0539,-0.0486,-0.047,-0.0434,-0.0408,-0.0292,-0.0259,-0.0182,-0.0113,-0.0043,-0.0022,0.0011,0.0029,0.0104,0.0072,0.0129,0.0129,0.0146,0.0198,0.0204,0.0207,0.021,0.0212,0,-0.0772,-0.0724,-0.0662,-0.0548,-0.0501,-0.0452,-0.0427,-0.0397,-0.0345,-0.0257,-0.014,-0.0067,0.0024,0.0127,0.0174,0.0185,0.0204,0.0161,0.0207,0.0336,0.0379,0.0444,0.0117,0.0237,0.0235,0.0233,0.0231,0.023,-0.0746,-0.0701,-0.0614,-0.0515,-0.045,-0.0399,-0.0364,-0.0333,-0.0239,-0.0071,-0.0036,0.0137,0.024,0.0336,0.0351,0.0454,0.0398,0.0478,0.0464,0.0475,0.056,0.0289,0.0425,0.0424,0.0422,0.0421,0.042,0,-0.0707,-0.0684,-0.06,-0.0476,-0.0392,-0.0375,-0.0319,-0.0259,-0.0127,0.0023,0.0171,0.0382,0.0535,0.0593,0.0704,0.0752,0.0776,0.077,0.082,0.0855,0.0617,0.0642,0.085,0.085,0.085,0.085,0.085,0.0849,-0.0687,-0.0643,-0.0613,-0.0443,-0.036,-0.0256,-0.0212,-0.0086,0.0032,0.0286,0.0451,0.0539,0.0611,0.0822,0.095,0.097,0.1042,0.1067,0.1057,0.0876,0.0847,0.082,0.0845,0.1092,0.1092,0.1365,0.1367,0.1368]}],[{"header":{"parameterUnit":"m.s-1","parameterCategory":2,"la1":30.2991,"la2":30.254,"lo1":-89.0895,"lo2":-89.0444,"dy":0.0017,"dx":0.0017,"nx":28,"ny":28,"refTime":"2023-07-24T21:00:00:Z","depth":"2","parameterNumber":2,"parameterNumberName":"U-component_of_CURRENTS"},"data":[0,0,0,0,0,0,0,0,0,0,0,0,0,0,0,0,0,0,0,0,0,0,0,0,0,0,0,0,0,0,0,0,0,0,0,0,0,0,0,0,0,0,0,0,0,0,0,0,0,0,0,0,0,0,0,0,0,0,-0.0654,-0.0654,0,-0.0641,-0.0641,-0.0641,-0.0566,-0.0564,-0.0562,-0.056,-0.0464,-0.0464,-0.0463,0,0,0,0,0,0,0,0,0,0,0,0,0,-0.0441,-0.0447,-0.0654,-0.0654,-0.0653,-0.0641,-0.0641,-0.0641,-0.0566,-0.0564,-0.0561,-0.0559,-0.0465,-0.0464,-0.0463,0,0,0,0,0,0,0,0,0,0,0,0,0,-0.0493,-0.0448,-0.0654,-0.0613,-0.061,-0.0641,-0.0641,-0.0641,-0.0567,-0.0564,-0.0561,-0.0558,-0.0465,-0.0464,-0.0463,-0.0514,0,0,-0.0459,-0.0459,0,0,0,0,0,0,0,0,-0.0491,-0.0501,-0.062,-0.0616,-0.0612,-0.0601,-0.0531,-0.0594,-0.0567,-0.0584,-0.056,-0.0557,-0.0504,-0.0499,-0.0506,-0.051,-0.0506,-0.0459,-0.0459,-0.0458,-0.0458,0,0,0,0,0,0,0,-0.0487,-0.05,-0.065,-0.062,-0.0615,-0.0537,-0.0543,-0.0542,-0.056,-0.0583,-0.0577,-0.0574,-0.0501,-0.0508,-0.0503,-0.0504,-0.0459,-0.0458,-0.0458,-0.0457,-0.0426,-0.0426,0,0,0,0,0,0,-0.05,-0.0499,-0.0651,-0.065,-0.0541,-0.0544,-0.055,-0.0609,-0.0562,-0.0552,-0.0577,-0.0571,-0.0511,-0.0505,-0.05,-0.0413,-0.0458,-0.0457,-0.0457,-0.0426,-0.0426,-0.0426,0,0,0,0,0,0,-0.0497,-0.0516,-0.0651,-0.0568,-0.0579,-0.0552,-0.0617,-0.061,-0.0579,-0.0558,-0.0546,-0.0548,-0.0509,-0.0501,-0.0467,-0.0414,-0.0457,-0.0456,-0.0427,-0.0426,-0.0426,-0.0333,0,0,0,0,0,0,-0.0492,-0.0517,-0.0552,-0.0572,-0.0585,-0.065,-0.0619,-0.0612,-0.0583,-0.0574,-0.053,-0.052,-0.0506,-0.0469,-0.0466,-0.0413,-0.0455,-0.0427,-0.0427,-0.0426,-0.0337,-0.033,-0.0324,0,0,0,0,0,-0.0485,-0.0548,-0.0556,-0.0571,-0.0641,-0.065,-0.0649,-0.0617,-0.0584,-0.0576,-0.054,-0.052,-0.0465,-0.0469,-0.0465,-0.041,-0.0427,-0.0427,-0.0426,-0.0339,-0.0331,-0.0324,0,0,0,0,0,0,-0.044,-0.0547,-0.0555,-0.0639,-0.0632,-0.0635,-0.0624,-0.0606,-0.0576,-0.0548,-0.0525,-0.0514,-0.0462,-0.047,-0.0474,-0.0407,-0.0441,-0.044,-0.0376,-0.0368,-0.0362,-0.0354,-0.0454,0,0,0,0,0,-0.0461,-0.0555,-0.059,-0.0643,-0.0643,-0.0629,-0.0623,-0.06,-0.0581,-0.0562,-0.053,-0.0499,-0.0471,-0.0443,-0.0431,-0.0401,-0.0397,-0.0367,-0.036,-0.0355,-0.0349,-0.0311,-0.03,-0.0425,-0.0425,-0.0425,0,0,-0.0459,-0.0521,-0.0573,-0.0641,-0.0631,-0.0632,-0.0617,-0.0598,-0.0573,-0.0559,-0.0504,-0.0478,-0.0463,-0.0417,-0.0394,-0.0404,-0.0317,-0.0354,-0.0349,-0.0347,-0.0309,-0.0297,-0.0286,-0.0425,-0.0425,-0.0425,0,0,-0.0438,-0.0549,-0.0576,-0.0611,-0.0608,-0.0611,-0.06,-0.0586,-0.0549,-0.0514,-0.0484,-0.0432,-0.0402,-0.0367,-0.0349,-0.0314,-0.0291,-0.0301,-0.0245,-0.0207,-0.0196,-0.0185,-0.0152,-0.014,-0.0288,-0.0288,-0.0288,0,-0.0415,-0.0482,-0.0567,-0.0585,-0.0605,-0.0599,-0.0585,-0.0571,-0.0536,-0.0491,-0.0481,-0.0394,-0.0378,-0.0304,-0.0281,-0.0292,-0.027,-0.0264,-0.0194,-0.0185,-0.0176,-0.0144,-0.0132,-0.0283,-0.0284,-0.0284,-0.0285,0,-0.0404,-0.0457,-0.047,-0.0525,-0.0549,-0.0552,-0.0556,-0.0523,-0.0479,-0.0445,-0.0353,-0.0329,-0.0264,-0.0251,-0.0248,-0.0166,-0.0169,-0.0193,-0.0203,-0.0157,-0.0128,-0.0116,-0.0277,-0.0278,-0.028,-0.0281,0,0,-0.0321,-0.0447,-0.0426,-0.0459,-0.0532,-0.0538,-0.0511,-0.0465,-0.0386,-0.0357,-0.026,-0.0212,-0.0168,-0.0149,-0.0125,-0.0092,-0.0006,-0.0102,-0.0102,-0.005,0.0092,0.0081,0.0092,-0.0001,0.0002,0.0003,0.0093,0,-0.025,-0.0273,-0.0359,-0.0371,-0.0395,-0.0454,-0.0394,-0.0363,-0.0327,-0.0241,-0.0202,-0.0108,-0.0138,-0.0064,-0.0042,-0.0013,0.0027,-0.0028,0.0022,0.0023,0.0024,0.0106,-0.0059,0.0007,0.0104,0.0106,0.0107,0,-0.017,-0.0209,-0.0215,-0.0285,-0.0283,-0.0295,-0.0241,-0.019,-0.0105,-0.0045,0.0007,0.0022,0.0088,0.0052,0.0117,0.0093,0.0104,0.0107,0.0111,0.0075,0.0034,-0.0029,0.0024,0.0126,0.0124,0.0123,0.0122,0,-0.0095,-0.0104,-0.0109,-0.0165,-0.0222,-0.0205,-0.018,-0.0106,-0.0039,0.0072,0.0117,0.0188,0.0237,0.025,0.0236,0.02,0.0295,0.0239,0.0235,0.0234,0.0088,0.0071,0.0289,0.0289,0.0289,0.0289,0.0288,0,-0.0098,-0.0089,-0.0056,-0.0158,-0.0049,-0.0088,-0.0023,0.0052,0.0152,0.0241,0.0237,0.0295,0.0289,0.0306,0.0293,0.0313,0.0344,0.0269,0.0268,0.0115,0.01,0.0183,0.017,0.0292,0.0291,0.0291,0.029,0,-0.005,-0.0106,-0.0072,-0.0066,-0.0088,0.0038,-0.0003,0.0079,0.0202,0.0293,0.0334,0.0392,0.045,0.042,0.0462,0.0395,0.0415,0.0413,0.0236,0.0213,0.0309,0.0299,0.0415,0.0416,0.0416,0.0416,0.0417,0,-0.0085,-0.0061,0.0025,-0.0002,-0.0039,0.0034,0.0047,0.0121,0.0178,0.0341,0.0406,0.0481,0.0499,0.0541,0.0464,0.0448,0.049,0.031,0.02,0.0341,0.0328,0.0317,0.0307,0.0041,0.0039,0.0036,0.0035,0,-0.0098,0.0031,0.0063,0.0086,0.0049,0.0057,0.0065,0.0108,0.025,0.0332,0.049,0.052,0.0519,0.0428,0.0394,0.0343,0.0294,0.0265,0.048,0.0039,-0.0003,-0.0018,-0.0018,0.0015,0.0017,0.0018,0.0019,0.002,0.0024,0.0116,0.0162,0.0216,0.0164,0.0126,0.0114,0.0139,0.0242,0.0397,0.0466,0.0481,0.0355,0.023,0.0219,0.0188,0.0196,0.0113,0.0116,0.0123,0.0068,0.003,0.0043,0.0045,0.0047,0.0048,0.005,0,0.0158,0.0171,0.0194,0.0218,0.0206,0.0158,0.0154,0.0173,0.0275,0.0334,0.0429,0.0256,0.0131,0.0106,-0.0009,-0.006,-0.0112,-0.0043,-0.0131,-0.0116,-0.0102,-0.0168,-0.0255,-0.0254,-0.0253,-0.0253,0,0,0.0185,0.02,0.0207,0.0208,0.023,0.0215,0.0218,0.0265,0.0278,0.0291,0.0258,0.0159,0.0053,-0.0084,-0.0167,-0.0174,-0.012,-0.0197,0.0016,-0.0074,-0.0056,-0.0079,-0.0174,0,0,0,0,0]},{"header":{"parameterUnit":"m.s-1","parameterCategory":2,"la1":30.2991,"la2":30.254,"lo1":-89.0895,"lo2":-89.0444,"dy":0.0017,"dx":0.0017,"nx":28,"ny":28,"refTime":"2023-07-24T21:00:00:Z","depth":"2","parameterNumber":3,"parameterNumberName":"V-component_of_CURRENTS"},"data":[0,0,0,0,0,0,0,0,0,0,0,0,0,0,0,0,0,0,0,0,0,0,0,0,0,0,0,0,0,0,0,0,0,0,0,0,0,0,0,0,0,0,0,0,0,0,0,0,0,0,0,0,0,0,0,0,0,0,0.0307,0.0306,0,0.0243,0.0242,0.0241,0.0136,0.0134,0.0132,0.013,-0.0014,-0.0016,-0.0018,0,0,0,0,0,0,0,0,0,0,0,0,0,0.0252,0.0254,0.0307,0.0306,0.0305,0.0243,0.0242,0.0241,0.0136,0.0134,0.0132,0.013,-0.0013,-0.0016,-0.0018,0,0,0,0,0,0,0,0,0,0,0,0,0,0.024,0.0255,0.0307,0.0246,0.024,0.0243,0.0242,0.0241,0.0137,0.0134,0.0131,0.0129,-0.0012,-0.0015,-0.0019,0.0017,0,0,-0.0028,-0.003,0,0,0,0,0,0,0,0,0.0241,0.0242,0.0256,0.0251,0.0244,0.0196,0.017,0.0162,0.0137,0.0175,0.013,0.0127,0.0052,0.0043,0.0036,0.001,0.0004,-0.0029,-0.0031,-0.0032,-0.0033,0,0,0,0,0,0,0,0.0242,0.0244,0.028,0.0256,0.0248,0.0193,0.0189,0.0168,0.0127,0.0171,0.0164,0.016,0.0047,0.004,0.0032,0.0002,-0.0029,-0.0031,-0.0033,-0.0035,-0.0113,-0.0114,0,0,0,0,0,0,0.0261,0.0246,0.0282,0.0278,0.0237,0.0197,0.0192,0.0213,0.0129,0.0114,0.0162,0.0155,0.0047,0.0036,0.0027,-0.0004,-0.0032,-0.0035,-0.0037,-0.0113,-0.0114,-0.0114,0,0,0,0,0,0,0.026,0.0266,0.0285,0.0259,0.0258,0.0202,0.0225,0.0213,0.0175,0.0123,0.0106,0.0132,0.0044,0.0031,-0.0016,-0.0009,-0.0036,-0.0039,-0.0113,-0.0113,-0.0114,-0.0023,0,0,0,0,0,0,0.026,0.0267,0.0277,0.0262,0.026,0.028,0.0227,0.0214,0.0179,0.0168,0.0093,0.0078,0.0041,-0.0011,-0.002,-0.0014,-0.0042,-0.0113,-0.0113,-0.0114,-0.0026,-0.002,-0.0016,0,0,0,0,0,0.0258,0.0288,0.0279,0.0282,0.0282,0.0281,0.0275,0.0223,0.018,0.0175,0.0114,0.0079,-0.002,-0.0013,-0.0023,-0.0018,-0.0113,-0.0113,-0.0113,-0.0028,-0.0022,-0.0016,0,0,0,0,0,0,0.0245,0.028,0.0269,0.03,0.0289,0.0263,0.0251,0.0219,0.017,0.0146,0.0084,0.0067,0.0029,-0.0009,-0.0001,-0.0045,-0.0074,-0.0077,-0.0007,-0.0001,0.0005,0.0058,-0.0044,0,0,0,0,0,0.0259,0.0294,0.0302,0.0314,0.0318,0.0282,0.0269,0.0241,0.0202,0.0175,0.0125,0.0067,0.0029,-0.0,-0.0036,-0.0054,-0.0067,-0.0062,-0.0057,-0.0052,-0.0017,-0.005,-0.0044,-0.0115,-0.0115,-0.0115,0,0,0.0254,0.0273,0.029,0.0314,0.0297,0.0325,0.0265,0.0252,0.0259,0.0171,0.0146,0.0087,0.0027,0.0004,-0.0017,-0.0033,-0.0037,-0.0052,-0.0047,-0.0014,-0.005,-0.0043,-0.0036,-0.0115,-0.0115,-0.0115,0,0,0.0245,0.0282,0.0299,0.0334,0.0331,0.0328,0.0325,0.0303,0.0273,0.0258,0.0188,0.0138,0.0082,0.0044,0.0018,0.0031,-0.0006,0.0001,0.0072,0.0039,0.0045,0.0051,0.0059,0.0065,0.0001,0.0002,0.0002,0,0.0225,0.028,0.0295,0.0339,0.0373,0.0337,0.037,0.0359,0.0316,0.0302,0.0258,0.0173,0.0113,0.0091,0.0089,0.0048,0.0033,0.0056,0.0049,0.0054,0.0058,0.0065,0.007,0.0006,0.0005,0.0005,0.0004,0,0.0247,0.0308,0.0326,0.0389,0.0415,0.045,0.0461,0.0457,0.0417,0.0397,0.0356,0.0278,0.0227,0.0191,0.0148,0.0141,0.0123,0.0064,0.0044,0.0072,0.0076,0.008,0.0012,0.001,0.0009,0.0008,0,0,0.017,0.0314,0.0322,0.038,0.0466,0.0482,0.0524,0.054,0.0534,0.0502,0.0496,0.0428,0.0371,0.0338,0.026,0.0233,0.0242,0.0169,0.0165,0.0199,0.0201,0.0239,0.0246,0.0173,0.0174,0.0174,0.0199,0,0.0175,0.0268,0.0349,0.0448,0.0505,0.0568,0.0569,0.0584,0.0593,0.0583,0.0529,0.0476,0.043,0.0372,0.0357,0.0262,0.0254,0.0244,0.0151,0.0151,0.0197,0.0252,0.019,0.0211,0.0202,0.0203,0.0203,0,0.0163,0.0245,0.033,0.0466,0.0486,0.0537,0.0589,0.059,0.0603,0.0585,0.0599,0.0567,0.0546,0.0469,0.0411,0.0404,0.033,0.0264,0.0261,0.0277,0.0196,0.0175,0.0218,0.0209,0.0209,0.0208,0.0208,0,0.0093,0.0237,0.0298,0.037,0.0489,0.0527,0.0552,0.0575,0.0557,0.0594,0.0606,0.0601,0.0561,0.0509,0.0438,0.0408,0.0372,0.0298,0.0281,0.0283,0.0208,0.0203,0.0262,0.0262,0.0262,0.0262,0.0262,0,0.0122,0.0189,0.0266,0.0359,0.0382,0.0445,0.0491,0.0504,0.0498,0.0493,0.0573,0.0601,0.0562,0.0568,0.0487,0.0436,0.0415,0.0337,0.03,0.0239,0.0236,0.0204,0.0197,0.0263,0.0263,0.0263,0.0262,0,0.0056,0.0153,0.0216,0.0324,0.038,0.0355,0.0479,0.0491,0.0464,0.049,0.049,0.0577,0.06,0.0594,0.0509,0.0484,0.0415,0.0384,0.0354,0.0316,0.0343,0.0339,0.0396,0.0398,0.0399,0.04,0.0401,0,0.0084,0.0081,0.0145,0.0237,0.0327,0.0377,0.0427,0.0443,0.0459,0.0488,0.0475,0.0551,0.0644,0.0627,0.0587,0.053,0.0442,0.04,0.0337,0.0403,0.036,0.0354,0.0349,0.0267,0.0267,0.0267,0.0267,0,0.0114,0.0033,0.0068,0.017,0.0292,0.0381,0.0461,0.0461,0.0441,0.0485,0.0524,0.0608,0.0669,0.0643,0.0599,0.054,0.0422,0.0399,0.0449,0.0258,0.0287,0.0243,0.0241,0.0265,0.0266,0.0266,0.0266,0.0266,0.0056,0.0009,0.002,0.0105,0.0236,0.0337,0.0412,0.0481,0.0487,0.0496,0.057,0.0637,0.0586,0.0555,0.053,0.0492,0.0489,0.0362,0.0359,0.0357,0.0353,0.0384,0.0382,0.0383,0.0384,0.0384,0.0385,0,0.0017,-0.0009,0.005,0.0137,0.0243,0.031,0.04,0.0453,0.0501,0.0521,0.0592,0.0525,0.051,0.0442,0.0406,0.0412,0.0406,0.0353,0.0278,0.0278,0.0278,0.0268,0.0276,0.0276,0.0277,0.0277,0,0,0.0026,0.0036,0.0023,0.0154,0.0212,0.0293,0.0335,0.0419,0.0447,0.0511,0.0486,0.0531,0.0437,0.0342,0.0323,0.0288,0.0305,0.0304,0.038,0.0293,0.0295,0.026,0.0243,0,0,0,0,0]}],[{"header":{"parameterUnit":"m.s-1","parameterCategory":2,"la1":30.2991,"la2":30.254,"lo1":-89.0895,"lo2":-89.0444,"dy":0.0017,"dx":0.0017,"nx":28,"ny":28,"refTime":"2023-07-24T21:00:00:Z","depth":"4","parameterNumber":2,"parameterNumberName":"U-component_of_CURRENTS"},"data":[0,0,0,0,0,0,0,0,0,0,0,0,0,0,0,0,0,0,0,0,0,0,0,0,0,0,0,0,0,0,0,0,0,0,0,0,0,0,0,0,0,0,0,0,0,0,0,0,0,0,0,0,0,0,0,0,0,0,-0.066,-0.0661,0,-0.0708,-0.0708,-0.0709,-0.0737,-0.0737,-0.0737,-0.0738,-0.0838,-0.084,-0.0842,0,0,0,0,0,0,0,0,0,0,0,0,0,-0.0627,-0.0627,-0.066,-0.0661,-0.0662,-0.0708,-0.0708,-0.0709,-0.0737,-0.0737,-0.0737,-0.0738,-0.0837,-0.084,-0.0842,0,0,0,0,0,0,0,0,0,0,0,0,0,-0.0652,-0.0627,-0.066,-0.0683,-0.0686,-0.0708,-0.0708,-0.0709,-0.0737,-0.0737,-0.0738,-0.0738,-0.0836,-0.0839,-0.0843,-0.0854,0,0,-0.0854,-0.0855,0,0,0,0,0,0,0,0,-0.0651,-0.0653,-0.0679,-0.0681,-0.0684,-0.0719,-0.0734,-0.0761,-0.0736,-0.0714,-0.0738,-0.0738,-0.0804,-0.081,-0.0814,-0.0859,-0.0863,-0.0854,-0.0856,-0.0858,-0.0859,0,0,0,0,0,0,0,-0.0649,-0.0651,-0.0676,-0.068,-0.0683,-0.0703,-0.0707,-0.0739,-0.0755,-0.0716,-0.0719,-0.0728,-0.0806,-0.081,-0.0817,-0.0865,-0.0854,-0.0857,-0.0859,-0.086,-0.1055,-0.1058,0,0,0,0,0,0,-0.0646,-0.0649,-0.0675,-0.0678,-0.0671,-0.0703,-0.0707,-0.0705,-0.0753,-0.0762,-0.0728,-0.073,-0.0804,-0.0812,-0.082,-0.0995,-0.0857,-0.0861,-0.0863,-0.1052,-0.1056,-0.1059,0,0,0,0,0,0,-0.0644,-0.0647,-0.0673,-0.0668,-0.0673,-0.0703,-0.0701,-0.0706,-0.0739,-0.0762,-0.0771,-0.0759,-0.0805,-0.0815,-0.0894,-0.0993,-0.0862,-0.0866,-0.1049,-0.1054,-0.1058,-0.1243,0,0,0,0,0,0,-0.0643,-0.0646,-0.0652,-0.0667,-0.0673,-0.0711,-0.0701,-0.0707,-0.0743,-0.0746,-0.0791,-0.0799,-0.0806,-0.0889,-0.0898,-0.0995,-0.0868,-0.1045,-0.1051,-0.1056,-0.1233,-0.1253,-0.1271,0,0,0,0,0,-0.0641,-0.0654,-0.0651,-0.0655,-0.0676,-0.0712,-0.0718,-0.0739,-0.0744,-0.0768,-0.0812,-0.0799,-0.0932,-0.0894,-0.0904,-0.1005,-0.1042,-0.1049,-0.1056,-0.1224,-0.1249,-0.127,0,0,0,0,0,0,-0.0649,-0.0658,-0.0656,-0.0671,-0.0699,-0.0719,-0.0746,-0.0756,-0.0805,-0.083,-0.0835,-0.0848,-0.0964,-0.0942,-0.0901,-0.1074,-0.0986,-0.0995,-0.1111,-0.1134,-0.1153,-0.1078,-0.0871,0,0,0,0,0,-0.065,-0.0664,-0.0676,-0.0696,-0.0708,-0.0729,-0.0749,-0.0777,-0.0817,-0.0839,-0.0899,-0.0946,-0.0993,-0.1028,-0.1077,-0.116,-0.1101,-0.1228,-0.1248,-0.1264,-0.1208,-0.122,-0.1235,-0.1082,-0.1082,-0.1082,0,0,-0.065,-0.067,-0.067,-0.07,-0.0721,-0.0759,-0.0744,-0.0803,-0.088,-0.0845,-0.0997,-0.1028,-0.103,-0.1146,-0.1193,-0.1144,-0.1288,-0.1273,-0.1287,-0.122,-0.1229,-0.1243,-0.1256,-0.1087,-0.1086,-0.1085,0,0,-0.068,-0.0685,-0.0706,-0.0739,-0.0795,-0.0812,-0.0834,-0.0905,-0.098,-0.1089,-0.1109,-0.1183,-0.1268,-0.1306,-0.1317,-0.1455,-0.1395,-0.1492,-0.1526,-0.1544,-0.1556,-0.1565,-0.1554,-0.156,-0.1494,-0.1495,-0.1495,0,-0.0688,-0.0718,-0.0722,-0.0771,-0.0816,-0.0838,-0.0895,-0.0966,-0.1081,-0.1147,-0.1163,-0.1298,-0.1335,-0.1419,-0.1472,-0.1502,-0.1471,-0.145,-0.1567,-0.1575,-0.1581,-0.1566,-0.1571,-0.1505,-0.1504,-0.1503,-0.1502,0,-0.0722,-0.0772,-0.08,-0.0859,-0.0905,-0.097,-0.1053,-0.1154,-0.1237,-0.1296,-0.1444,-0.1495,-0.1529,-0.1605,-0.1571,-0.1657,-0.1611,-0.1601,-0.1507,-0.1607,-0.1586,-0.1588,-0.1519,-0.1515,-0.1512,-0.151,0,0,-0.069,-0.0798,-0.0814,-0.0856,-0.0972,-0.0997,-0.1156,-0.1264,-0.1336,-0.148,-0.1572,-0.1685,-0.1672,-0.1677,-0.1696,-0.1723,-0.1785,-0.1669,-0.1666,-0.1649,-0.1793,-0.1627,-0.1612,-0.1796,-0.1796,-0.1797,-0.1776,0,-0.0726,-0.0815,-0.0883,-0.0981,-0.1026,-0.1124,-0.1245,-0.1359,-0.1467,-0.1576,-0.1652,-0.1715,-0.1714,-0.1718,-0.1759,-0.1774,-0.1787,-0.1787,-0.1698,-0.1694,-0.1529,-0.1607,-0.1798,-0.1777,-0.1777,-0.1777,-0.1777,0,-0.0738,-0.0803,-0.0897,-0.1033,-0.1061,-0.1102,-0.1253,-0.1369,-0.1521,-0.1612,-0.1678,-0.1717,-0.1776,-0.1752,-0.1797,-0.1792,-0.1771,-0.1786,-0.1786,-0.154,-0.1528,-0.1643,-0.1778,-0.1778,-0.1778,-0.1778,-0.1778,0,-0.069,-0.0817,-0.0887,-0.0933,-0.1077,-0.1125,-0.118,-0.134,-0.146,-0.1565,-0.1634,-0.1711,-0.1736,-0.1747,-0.1772,-0.1768,-0.1812,-0.1818,-0.1653,-0.1642,-0.1714,-0.1703,-0.181,-0.181,-0.181,-0.181,-0.181,0,-0.0696,-0.0761,-0.0828,-0.0872,-0.0911,-0.1028,-0.1107,-0.12,-0.1359,-0.1467,-0.1574,-0.1631,-0.1729,-0.1785,-0.1778,-0.171,-0.1807,-0.1628,-0.1617,-0.18,-0.18,-0.1717,-0.1706,-0.1809,-0.1809,-0.181,-0.181,0,-0.0641,-0.0713,-0.0786,-0.0889,-0.0888,-0.0888,-0.1009,-0.1096,-0.1234,-0.1375,-0.1398,-0.1569,-0.1562,-0.1667,-0.1693,-0.1691,-0.1662,-0.161,-0.1789,-0.1794,-0.1475,-0.1475,-0.1396,-0.139,-0.1385,-0.138,-0.1377,0,-0.0627,-0.0665,-0.0738,-0.0729,-0.0748,-0.0764,-0.0819,-0.098,-0.11,-0.1311,-0.138,-0.1422,-0.1501,-0.1403,-0.1504,-0.1479,-0.1463,-0.1497,-0.1473,-0.1431,-0.143,-0.1438,-0.1445,-0.1368,-0.1367,-0.1366,-0.1364,0,-0.0621,-0.065,-0.0686,-0.0663,-0.0663,-0.0699,-0.0769,-0.0809,-0.104,-0.1218,-0.1245,-0.1246,-0.1246,-0.1233,-0.1242,-0.1237,-0.1513,-0.1442,-0.1452,-0.1428,-0.1396,-0.1402,-0.1415,-0.1346,-0.1349,-0.135,-0.1351,0,-0.0599,-0.0595,-0.0641,-0.059,-0.0611,-0.0604,-0.0628,-0.0716,-0.0819,-0.1069,-0.1041,-0.1083,-0.1177,-0.1103,-0.1115,-0.109,-0.1053,-0.1086,-0.1114,-0.1135,-0.1068,-0.099,-0.0779,0,0,0,0,0,-0.0565,-0.0572,-0.0569,-0.0522,-0.0547,-0.0567,-0.0643,-0.0707,-0.0895,-0.0864,-0.0949,-0.0912,-0.0871,-0.0889,-0.0796,-0.1003,-0.1077,-0.0905,-0.1133,-0.1245,-0.1266,-0.1216,0,0,0,0,0,0,-0.0553,-0.0567,-0.0567,-0.05,-0.0465,-0.0503,-0.0535,-0.0629,-0.0614,-0.0772,-0.0697,-0.0888,-0.0802,-0.0875,-0.0781,-0.0802,-0.0934,-0.0962,-0.096,-0.1233,-0.1252,-0.1269,-0.1225,0,0,0,0,0]},{"header":{"parameterUnit":"m.s-1","parameterCategory":2,"la1":30.2991,"la2":30.254,"lo1":-89.0895,"lo2":-89.0444,"dy":0.0017,"dx":0.0017,"nx":28,"ny":28,"refTime":"2023-07-24T21:00:00:Z","depth":"4","parameterNumber":3,"parameterNumberName":"V-component_of_CURRENTS"},"data":[0,0,0,0,0,0,0,0,0,0,0,0,0,0,0,0,0,0,0,0,0,0,0,0,0,0,0,0,0,0,0,0,0,0,0,0,0,0,0,0,0,0,0,0,0,0,0,0,0,0,0,0,0,0,0,0,0,0,0.0419,0.042,0,0.0449,0.0449,0.0449,0.0522,0.0524,0.0525,0.0527,0.0661,0.0662,0.0664,0,0,0,0,0,0,0,0,0,0,0,0,0,0.045,0.0449,0.0419,0.042,0.042,0.0449,0.0449,0.0449,0.0521,0.0524,0.0526,0.0528,0.066,0.0662,0.0664,0,0,0,0,0,0,0,0,0,0,0,0,0,0.0451,0.0449,0.0419,0.0462,0.0467,0.0449,0.0449,0.0449,0.0521,0.0524,0.0526,0.0529,0.0659,0.0662,0.0665,0.0628,0,0,0.0673,0.0675,0,0,0,0,0,0,0,0,0.0451,0.045,0.0455,0.0459,0.0464,0.0487,0.0509,0.0515,0.052,0.0497,0.0527,0.053,0.0612,0.0619,0.0613,0.0635,0.064,0.0674,0.0675,0.0677,0.0677,0,0,0,0,0,0,0,0.0451,0.0449,0.0428,0.0456,0.0461,0.0489,0.0491,0.051,0.0539,0.0499,0.0506,0.0512,0.0615,0.061,0.0617,0.0642,0.0674,0.0676,0.0678,0.0679,0.0742,0.0742,0,0,0,0,0,0,0.0448,0.0448,0.0427,0.0429,0.0467,0.0486,0.0489,0.0474,0.0537,0.0549,0.051,0.0516,0.0604,0.0613,0.0622,0.0693,0.0677,0.0679,0.0681,0.0742,0.0742,0.0742,0,0,0,0,0,0,0.0448,0.0445,0.0426,0.0444,0.0444,0.0483,0.0466,0.0474,0.0498,0.0544,0.0558,0.0531,0.0606,0.0618,0.0661,0.0695,0.068,0.0683,0.0742,0.0742,0.0742,0.0765,0,0,0,0,0,0,0.0448,0.0444,0.0439,0.0442,0.0443,0.0423,0.0464,0.0472,0.0498,0.0506,0.0566,0.0579,0.0609,0.0657,0.0664,0.0699,0.0685,0.0742,0.0742,0.0742,0.0764,0.0766,0.0767,0,0,0,0,0,0.0449,0.0429,0.0437,0.0436,0.0431,0.0422,0.0424,0.046,0.0497,0.0495,0.0546,0.0579,0.0663,0.0659,0.0667,0.0704,0.0742,0.0742,0.0742,0.0764,0.0766,0.0767,0,0,0,0,0,0,0.0432,0.0435,0.0445,0.0425,0.0428,0.0436,0.044,0.0465,0.0499,0.0532,0.0573,0.0589,0.0652,0.0655,0.0649,0.0718,0.0709,0.0711,0.0723,0.0725,0.0726,0.066,0.0688,0,0,0,0,0,0.0424,0.0423,0.0418,0.0408,0.0404,0.0424,0.043,0.0463,0.0491,0.051,0.0575,0.0623,0.0648,0.0669,0.071,0.0728,0.0724,0.0756,0.0758,0.0759,0.0709,0.0732,0.0731,0.0742,0.0742,0.0742,0,0,0.0405,0.0421,0.0411,0.0408,0.0412,0.0392,0.0434,0.0455,0.047,0.0519,0.059,0.0646,0.0657,0.0702,0.0727,0.0713,0.0762,0.0759,0.076,0.0708,0.0732,0.0731,0.073,0.0742,0.0742,0.0742,0,0,0.0384,0.0385,0.0375,0.0377,0.0404,0.04,0.0408,0.0451,0.0499,0.0545,0.0602,0.0661,0.0713,0.0735,0.0737,0.0755,0.0782,0.0788,0.0731,0.0757,0.0756,0.0755,0.0786,0.0787,0.0774,0.0774,0.0774,0,0.0377,0.0361,0.0369,0.0368,0.0366,0.0397,0.0379,0.0407,0.0484,0.0513,0.0575,0.0659,0.0713,0.0706,0.0727,0.0761,0.0773,0.0732,0.0759,0.0757,0.0756,0.0787,0.0788,0.0775,0.0775,0.0774,0.0774,0,0.0335,0.0339,0.0334,0.0331,0.0315,0.0323,0.0339,0.0383,0.0451,0.0489,0.0563,0.0639,0.0664,0.0719,0.0724,0.0739,0.0755,0.0777,0.0756,0.0756,0.079,0.0791,0.0776,0.0776,0.0776,0.0775,0,0,0.0309,0.0305,0.0312,0.0303,0.0314,0.0288,0.0303,0.0305,0.0306,0.0428,0.0436,0.0528,0.0583,0.0585,0.0643,0.0669,0.0717,0.0707,0.0708,0.0737,0.0776,0.0654,0.0643,0.0751,0.075,0.075,0.0818,0,0.0292,0.0275,0.0273,0.0238,0.022,0.0235,0.022,0.0238,0.0285,0.0316,0.0402,0.0441,0.0523,0.0553,0.0591,0.068,0.0712,0.0695,0.0767,0.0768,0.0659,0.0636,0.0748,0.0819,0.0819,0.0819,0.0819,0,0.0268,0.0266,0.0243,0.0198,0.0181,0.0166,0.0131,0.0125,0.0151,0.0199,0.0241,0.03,0.0354,0.0437,0.0553,0.054,0.0637,0.0717,0.0722,0.0579,0.0643,0.0808,0.082,0.082,0.082,0.082,0.082,0,0.0269,0.0237,0.0223,0.0219,0.0172,0.0171,0.0129,0.012,0.01,0.013,0.0127,0.0194,0.0243,0.0353,0.0517,0.0534,0.0649,0.0701,0.0681,0.0677,0.0762,0.0762,0.0766,0.0766,0.0766,0.0766,0.0766,0,0.0264,0.0251,0.0234,0.0245,0.0189,0.0154,0.0098,0.0088,0.005,-0.0003,0.0072,0.0051,0.0224,0.031,0.0463,0.0553,0.0612,0.0632,0.0663,0.0777,0.0777,0.0765,0.0764,0.0768,0.0768,0.0767,0.0767,0,0.0269,0.0273,0.0269,0.024,0.0216,0.0183,0.0068,-0.0004,-0.0006,-0.007,-0.0068,-0.0043,0.0023,0.0192,0.0372,0.0465,0.0589,0.0622,0.072,0.0764,0.0616,0.0616,0.0564,0.056,0.0556,0.0553,0.0551,0,0.0253,0.0278,0.0282,0.0266,0.0267,0.019,0.0101,0.0012,-0.0077,-0.0139,-0.0187,-0.0157,-0.0121,0.0056,0.0212,0.0432,0.0479,0.0567,0.0574,0.0547,0.0585,0.059,0.0595,0.0545,0.0544,0.0543,0.0542,0,0.0251,0.0307,0.0296,0.0297,0.0239,0.0078,-0.004,-0.0097,-0.0221,-0.0234,-0.0279,-0.0218,-0.0177,-0.0035,0.0131,0.0303,0.0511,0.053,0.054,0.0547,0.0524,0.0566,0.0575,0.0529,0.0531,0.0532,0.0533,0,0.0253,0.0266,0.0314,0.0281,0.0209,0.0037,-0.006,-0.0195,-0.0292,-0.0337,-0.036,-0.0283,-0.0239,-0.0108,0.0046,0.0175,0.0201,0.0304,0.0326,0.0341,0.0241,0.0177,0.0064,0,0,0,0,0,0.0265,0.0284,0.0264,0.0203,0.0126,0.0078,-0.0134,-0.0246,-0.0334,-0.0371,-0.036,-0.0321,-0.019,-0.0151,-0.005,-0.0045,0.0217,0.0075,0.0347,0.046,0.0474,0.038,0,0,0,0,0,0,0.026,0.0291,0.0274,0.0165,0.0133,-0.0042,-0.0145,-0.0259,-0.0296,-0.0319,-0.026,-0.0244,-0.0129,-0.0195,-0.001,0.0011,0.0201,0.0129,0.0131,0.0452,0.0465,0.0477,0.0384,0,0,0,0,0]}]]